Location: Unspecified
(0.0000°N, 0.0000°E)
Time: 13:22:04
(UTC+00:00)

Vanguard 2 - All Passes

Search period start: 23 August 2014 00:00
Search period end: 02 September 2014 00:00
Orbit: 553 x 2948 km, 32.9° (Epoch: 23 August)

Date Brightness Start Highest point End Pass type
(mag) Time Alt. Az. Time Alt. Az. Time Alt. Az.
23 Aug - 01:29:58 10° SSW 01:32:54 11° S 01:36:11 10° S visible
23 Aug - 03:42:48 10° SSW 03:49:35 14° SSE 03:57:10 10° SE visible
23 Aug - 05:52:10 10° SSW 06:06:20 31° SSE 06:20:29 10° E daylight
23 Aug - 08:02:57 10° SW 08:21:00 68° SE 08:35:07 10° ENE daylight
23 Aug - 10:17:14 10° WSW 10:33:22 52° NW 10:44:16 10° NE daylight
23 Aug - 12:39:04 10° WNW 12:44:27 14° NW 12:48:56 10° N daylight
23 Aug - 19:18:59 10° N 19:20:59 13° NE 19:23:09 10° ENE visible
23 Aug - 21:24:46 10° WNW 21:29:10 58° SSW 21:35:45 10° SE night (unlit)
23 Aug - 23:35:49 10° SW 23:39:50 16° SSW 23:44:58 10° SSE night (unlit)
24 Aug - 04:02:10 10° SSW 04:10:45 17° SSE 04:20:27 10° SE visible
24 Aug - 06:11:14 10° SSW 06:26:43 39° SSE 06:41:48 10° E daylight
24 Aug - 08:22:29 10° SW 08:40:48 85° SE 08:54:48 10° ENE daylight
24 Aug - 10:38:09 10° W 10:52:51 39° NW 11:03:06 10° NNE daylight
24 Aug - 19:36:55 10° NNW 19:40:17 26° NE 19:44:14 10° E visible
24 Aug - 21:44:35 10° W 21:48:48 33° SSW 21:54:51 10° SE night (unlit)
24 Aug - 23:58:14 10° SSW 00:00:14 11° S 00:02:26 10° S night (unlit)
25 Aug - 04:21:13 10° SSW 04:31:40 21° SSE 04:43:31 10° ESE visible
25 Aug - 06:30:21 10° SW 06:46:53 49° SSE 07:02:34 10° ENE daylight
25 Aug - 08:42:17 10° WSW 09:00:28 78° NW 09:14:14 10° NE daylight
25 Aug - 10:59:41 10° W 11:12:27 29° NW 11:21:44 10° NNE daylight
25 Aug - 19:55:41 10° NW 19:59:32 55° NE 20:04:21 10° ESE visible
25 Aug - 22:04:56 10° WSW 22:08:38 20° SSW 22:13:32 10° SSE night (unlit)
26 Aug - 02:34:22 10° S 02:36:16 10° SSE 02:38:16 10° SSE visible
26 Aug - 04:40:08 10° SSW 04:52:17 27° SSE 05:06:00 10° ESE visible
26 Aug - 06:49:34 10° SW 07:06:50 62° SE 07:22:52 10° ENE daylight
26 Aug - 09:02:25 10° WSW 09:20:05 61° NW 09:33:25 10° NE daylight
26 Aug - 11:22:00 10° WNW 11:32:15 21° NW 11:40:07 10° N daylight
26 Aug - 20:14:55 10° WNW 20:18:52 70° SW 20:23:54 10° SE visible
26 Aug - 22:26:17 10° SW 22:28:40 13° SSW 22:31:26 10° S night (unlit)
27 Aug - 02:52:11 10° S 02:57:20 13° SSE 03:03:08 10° SE visible
27 Aug - 04:59:02 10° SSW 05:12:36 34° SSE 05:27:49 10° E visible
27 Aug - 07:08:56 10° SW 07:26:40 77° SE 07:42:48 10° ENE daylight
27 Aug - 09:22:59 10° WSW 09:39:42 48° NW 09:52:26 10° NE daylight
27 Aug - 11:45:19 10° WNW 11:52:19 15° NNW 11:58:06 10° N daylight
27 Aug - 18:27:03 10° NNW 18:30:01 19° NNE 18:32:57 10° E visible
27 Aug - 20:34:38 10° W 20:38:20 34° SSW 20:43:00 10° SE visible
28 Aug - 03:10:35 10° S 03:18:09 16° SSE 03:27:04 10° ESE visible
28 Aug - 05:18:00 10° SSW 05:32:41 43° SE 05:49:00 10° E visible
28 Aug - 07:28:30 10° SW 07:46:24 86° NW 08:02:25 10° NE daylight
28 Aug - 09:44:04 10° W 09:59:25 36° NW 10:11:16 10° NNE daylight
28 Aug - 12:10:56 10° NW 12:12:41 10° NNW 12:14:21 10° NNW daylight
28 Aug - 18:45:36 10° NW 18:49:25 39° NE 18:53:15 10° ESE visible
28 Aug - 20:54:58 10° WSW 20:57:58 19° SSW 21:01:34 10° SSE visible
29 Aug - 03:29:07 10° SSW 03:38:40 21° SSE 03:50:16 10° ESE visible
29 Aug - 05:37:02 10° SW 05:52:34 55° SE 06:09:39 10° ENE visible
29 Aug - 07:48:22 10° WSW 08:06:06 70° NW 08:21:47 10° NE daylight
29 Aug - 10:05:47 10° W 10:19:19 28° NNW 10:29:59 10° NNE daylight
29 Aug - 19:04:42 10° NW 19:08:45 88° NNE 19:12:54 10° SE visible
29 Aug - 21:17:02 10° SSW 21:17:48 10° SSW 21:18:35 10° SSW night (unlit)
30 Aug - 03:47:46 10° SSW 03:58:53 28° SSE 04:12:41 10° E visible
30 Aug - 05:56:14 10° SW 06:12:20 70° SE 06:29:51 10° ENE daylight
30 Aug - 08:08:36 10° WSW 08:25:51 55° NW 08:40:57 10° NE daylight
30 Aug - 10:28:16 10° WNW 10:39:28 21° NNW 10:48:33 10° NNE daylight
30 Aug - 17:16:23 10° NNW 17:19:35 17° NNE 17:22:21 10° ENE daylight
30 Aug - 19:24:19 10° WNW 19:28:06 41° SW 19:32:04 10° SE visible
31 Aug - 02:02:09 10° S 02:05:14 11° SSE 02:08:37 10° SE visible
31 Aug - 04:06:31 10° SSW 04:18:50 37° SE 04:34:22 10° E visible
31 Aug - 06:15:37 10° SW 06:32:03 86° SE 06:49:42 10° NE daylight
31 Aug - 08:29:16 10° W 08:45:41 43° NW 08:59:58 10° NNE daylight
31 Aug - 10:51:33 10° WNW 10:59:54 16° NNW 11:06:57 10° N daylight
31 Aug - 17:34:50 10° NNW 17:39:12 32° NNE 17:42:47 10° E daylight
31 Aug - 19:44:32 10° W 19:47:31 20° SSW 19:50:40 10° SSE visible
01 Sep - 02:19:19 10° S 02:25:39 16° SSE 02:33:22 10° ESE visible
01 Sep - 04:25:23 10° SW 04:38:36 48° SE 04:55:25 10° ENE visible
01 Sep - 06:35:14 10° WSW 06:51:47 78° NW 07:09:15 10° NE daylight
01 Sep - 08:50:29 10° W 09:05:41 34° NNW 09:18:52 10° NNE daylight
01 Sep - 11:15:45 10° NW 11:20:39 12° NNW 11:25:02 10° N daylight
01 Sep - 15:47:10 10° N 15:48:56 11° NNE 15:50:32 10° NE daylight
01 Sep - 17:53:52 10° NW 17:58:38 67° NE 18:02:33 10° ESE daylight
01 Sep - 20:06:36 10° SW 20:07:05 10° SSW 20:07:35 10° SSW visible
